When you browse on this site, cookies collect data to enhance your experience and personalize the content and advertising you see.
Visit our Privacy Policy to learn more. By continuing to use the site, you agree to this use of cookies and data.
  • en France
  • Liste des pays
  • À 7 jours
  • Température de l'eau
  • Carte satellitaire
  • Carte météo
  • Widgets météo
  • user-avatar
    Se connecter

    Météo par heure à Kalgoorlie

    Ce jour, 18 Décembre, Mardi

    Heure Température Précipitation Vent Pression Humidité
    00:00 +17°C° 0 mm 8 m/s 726 mmHg 76%
    01:00 +16°C° 0 mm 7 m/s 726 mmHg 76%
    02:00 +16°C° 0 mm 7 m/s 726 mmHg 76%
    03:00 +16°C° 0 mm 7 m/s 727 mmHg 76%
    04:00 +16°C° 0 mm 7 m/s 727 mmHg 76%
    05:00 +16°C° 0 mm 7 m/s 727 mmHg 77%
    06:00 +16°C° 0 mm 7 m/s 728 mmHg 76%
    07:00 +16°C° 0 mm 7 m/s 728 mmHg 75%
    08:00 +16°C° 0 mm 5 m/s 729 mmHg 71%
    09:00 +19°C° 0 mm 5 m/s 729 mmHg 64%
    10:00 +21°C° 0 mm 5 m/s 729 mmHg 58%
    11:00 +22°C° 0 mm 5 m/s 729 mmHg 52%
    12:00 +25°C° 0 mm 5 m/s 729 mmHg 47%
    13:00 +27°C° 0 mm 5 m/s 728 mmHg 42%
    14:00 +28°C° 0 mm 5 m/s 729 mmHg 41%
    15:00 +28°C° 0 mm 6 m/s 729 mmHg 39%
    16:00 +28°C° 0 mm 6 m/s 729 mmHg 37%
    17:00 +29°C° 0 mm 6 m/s 729 mmHg 36%
    18:00 +27°C° 0 mm 7 m/s 729 mmHg 39%
    19:00 +26°C° 0 mm 7 m/s 729 mmHg 42%
    20:00 +23°C° 0 mm 8 m/s 730 mmHg 45%
    21:00 +22°C° 0 mm 8 m/s 730 mmHg 50%
    22:00 +20°C° 0 mm 8 m/s 730 mmHg 55%
    23:00 +18°C° 0 mm 7 m/s 731 mmHg 61%

    Demain, 19 Décembre, Mercredi

    Heure Température Précipitation Vent Pression Humidité
    00:00 +17°C° 0 mm 7 m/s 731 mmHg 64%
    01:00 +16°C° 0 mm 6 m/s 731 mmHg 67%
    02:00 +15°C° 0 mm 6 m/s 731 mmHg 70%
    03:00 +15°C° 0 mm 6 m/s 731 mmHg 72%
    04:00 +15°C° 0 mm 5 m/s 731 mmHg 74%
    05:00 +14°C° 0 mm 5 m/s 731 mmHg 76%
    06:00 +15°C° 0 mm 5 m/s 731 mmHg 70%
    07:00 +17°C° 0 mm 5 m/s 732 mmHg 64%
    08:00 +19°C° 0 mm 5 m/s 732 mmHg 58%
    09:00 +21°C° 0 mm 5 m/s 732 mmHg 50%
    10:00 +22°C° 0 mm 4 m/s 732 mmHg 43%
    11:00 +25°C° 0 mm 4 m/s 731 mmHg 35%
    12:00 +27°C° 0 mm 4 m/s 731 mmHg 31%
    13:00 +28°C° 0 mm 4 m/s 731 mmHg 26%
    14:00 +30°C° 0 mm 4 m/s 730 mmHg 22%
    15:00 +30°C° 0 mm 4 m/s 730 mmHg 21%
    16:00 +30°C° 0 mm 4 m/s 730 mmHg 19%
    17:00 +32°C° 0 mm 4 m/s 730 mmHg 18%
    18:00 +30°C° 0 mm 4 m/s 730 mmHg 20%
    19:00 +29°C° 0 mm 4 m/s 731 mmHg 22%
    20:00 +28°C° 0 mm 4 m/s 731 mmHg 24%
    21:00 +27°C° 0 mm 6 m/s 732 mmHg 31%
    22:00 +24°C° 0 mm 7 m/s 732 mmHg 38%
    23:00 +23°C° 0 mm 9 m/s 732 mmHg 45%

    Après-demain, 20 Décembre, Jeudi

    Heure Température Précipitation Vent Pression Humidité
    00:00 +21°C° 0 mm 8 m/s 732 mmHg 50%
    01:00 +20°C° 0 mm 8 m/s 732 mmHg 54%
    02:00 +18°C° 0 mm 8 m/s 732 mmHg 59%
    03:00 +17°C° 0 mm 7 m/s 732 mmHg 61%
    04:00 +17°C° 0 mm 7 m/s 732 mmHg 63%
    05:00 +16°C° 0 mm 6 m/s 732 mmHg 65%
    06:00 +19°C° 0 mm 6 m/s 732 mmHg 61%
    07:00 +20°C° 0 mm 6 m/s 732 mmHg 56%
    08:00 +21°C° 0 mm 6 m/s 733 mmHg 51%
    09:00 +23°C° 0 mm 5 m/s 733 mmHg 45%
    10:00 +26°C° 0 mm 5 m/s 732 mmHg 39%
    11:00 +28°C° 0 mm 5 m/s 732 mmHg 33%
    12:00 +29°C° 0 mm 4 m/s 732 mmHg 30%
    13:00 +30°C° 0 mm 4 m/s 731 mmHg 27%
    14:00 +32°C° 0 mm 4 m/s 731 mmHg 23%
    15:00 +31°C° 0 mm 3 m/s 731 mmHg 22%
    16:00 +31°C° 0 mm 3 m/s 730 mmHg 21%
    17:00 +33°C° 0 mm 3 m/s 730 mmHg 19%
    18:00 +31°C° 0 mm 3 m/s 731 mmHg 20%
    19:00 +30°C° 0 mm 4 m/s 731 mmHg 21%
    20:00 +29°C° 0 mm 4 m/s 732 mmHg 21%
    21:00 +28°C° 0 mm 6 m/s 732 mmHg 25%
    22:00 +26°C° 0 mm 8 m/s 732 mmHg 29%
    23:00 +24°C° 0 mm 10 m/s 732 mmHg 32%

    21 Décembre, Vendredi

    Heure Température Précipitation Vent Pression Humidité
    00:00 +23°C° 0 mm 9 m/s 732 mmHg 39%
    01:00 +21°C° 0 mm 8 m/s 731 mmHg 45%
    02:00 +20°C° 0 mm 8 m/s 731 mmHg 51%
    03:00 +18°C° 0 mm 7 m/s 731 mmHg 53%
    04:00 +18°C° 0 mm 7 m/s 732 mmHg 55%
    05:00 +17°C° 0 mm 6 m/s 732 mmHg 57%
    06:00 +19°C° 0 mm 6 m/s 732 mmHg 53%
    07:00 +21°C° 0 mm 6 m/s 733 mmHg 49%
    08:00 +22°C° 0 mm 6 m/s 733 mmHg 44%
    09:00 +24°C° 0 mm 6 m/s 733 mmHg 39%
    10:00 +27°C° 0 mm 6 m/s 733 mmHg 33%
    11:00 +29°C° 0 mm 5 m/s 733 mmHg 28%
    12:00 +30°C° 0 mm 5 m/s 732 mmHg 25%
    13:00 +32°C° 0 mm 4 m/s 732 mmHg 23%
    14:00 +33°C° 0 mm 3 m/s 731 mmHg 21%
    15:00 +33°C° 0 mm 3 m/s 731 mmHg 20%
    16:00 +33°C° 0 mm 4 m/s 731 mmHg 19%
    17:00 +34°C° 0 mm 4 m/s 731 mmHg 19%
    18:00 +33°C° 0 mm 4 m/s 731 mmHg 20%
    19:00 +32°C° 0 mm 4 m/s 732 mmHg 21%
    20:00 +30°C° 0 mm 4 m/s 732 mmHg 22%
    21:00 +29°C° 0 mm 5 m/s 732 mmHg 23%
    22:00 +28°C° 0 mm 6 m/s 732 mmHg 24%
    23:00 +28°C° 0 mm 7 m/s 733 mmHg 25%

    22 Décembre, Samedi

    Heure Température Précipitation Vent Pression Humidité
    00:00 +27°C° 0 mm 7 m/s 732 mmHg 26%
    01:00 +26°C° 0 mm 6 m/s 732 mmHg 27%
    02:00 +24°C° 0 mm 6 m/s 732 mmHg 28%
    03:00 +23°C° 0 mm 6 m/s 732 mmHg 32%
    04:00 +23°C° 0 mm 6 m/s 732 mmHg 35%
    05:00 +22°C° 0 mm 5 m/s 732 mmHg 39%
    06:00 +23°C° 0 mm 6 m/s 733 mmHg 36%
    07:00 +24°C° 0 mm 6 m/s 733 mmHg 34%
    08:00 +27°C° 0 mm 6 m/s 733 mmHg 32%
    09:00 +29°C° 0 mm 6 m/s 733 mmHg 27%
    10:00 +32°C° 0 mm 6 m/s 733 mmHg 23%
    11:00 +34°C° 0 mm 5 m/s 732 mmHg 18%
    12:00 +35°C° 0 mm 5 m/s 732 mmHg 16%
    13:00 +36°C° 0 mm 5 m/s 731 mmHg 14%
    14:00 +37°C° 0 mm 4 m/s 731 mmHg 11%
    15:00 +37°C° 0 mm 4 m/s 730 mmHg 11%
    16:00 +37°C° 0 mm 4 m/s 730 mmHg 10%
    17:00 +37°C° 0 mm 3 m/s 730 mmHg 10%
    18:00 +36°C° 0 mm 4 m/s 730 mmHg 11%
    19:00 +35°C° 0 mm 4 m/s 731 mmHg 11%
    20:00 +34°C° 0 mm 4 m/s 731 mmHg 12%
    21:00 +33°C° 0 mm 5 m/s 731 mmHg 13%
    22:00 +33°C° 0 mm 5 m/s 731 mmHg 14%
    23:00 +32°C° 0 mm 6 m/s 731 mmHg 15%

    23 Décembre, Dimanche

    Heure Température Précipitation Vent Pression Humidité
    00:00 +30°C° 0 mm 6 m/s 731 mmHg 15%
    01:00 +30°C° 0 mm 6 m/s 730 mmHg 15%
    02:00 +29°C° 0 mm 6 m/s 730 mmHg 15%
    03:00 +28°C° 0 mm 6 m/s 730 mmHg 16%
    04:00 +28°C° 0 mm 5 m/s 730 mmHg 16%
    05:00 +27°C° 0 mm 5 m/s 730 mmHg 16%
    06:00 +29°C° 0 mm 5 m/s 731 mmHg 15%
    07:00 +30°C° 0 mm 6 m/s 731 mmHg 14%
    08:00 +33°C° 0 mm 6 m/s 732 mmHg 12%
    09:00 +35°C° 0 mm 5 m/s 731 mmHg 11%
    10:00 +36°C° 0 mm 4 m/s 731 mmHg 10%
    11:00 +37°C° 0 mm 3 m/s 730 mmHg 9%
    12:00 +38°C° 0 mm 3 m/s 730 mmHg 8%
    13:00 +39°C° 0 mm 3 m/s 729 mmHg 8%
    14:00 +39°C° 0 mm 3 m/s 729 mmHg 7%
    15:00 +39°C° 0 mm 3 m/s 729 mmHg 7%
    16:00 +39°C° 0 mm 3 m/s 728 mmHg 6%
    17:00 +39°C° 0 mm 3 m/s 728 mmHg 6%
    18:00 +39°C° 0 mm 3 m/s 728 mmHg 6%
    19:00 +38°C° 0 mm 3 m/s 728 mmHg 7%
    20:00 +37°C° 0 mm 3 m/s 729 mmHg 7%
    21:00 +36°C° 0 mm 3 m/s 729 mmHg 8%
    22:00 +35°C° 0 mm 3 m/s 729 mmHg 9%
    23:00 +34°C° 0 mm 4 m/s 729 mmHg 10%
    Voir plus